Location: Limoges
(45.8354°N, 1.2645°E)
Time: 10:57:13
(UTC+01:00)

SR - All Passes

Search period start: 25 February 2024 00:00
Search period end: 06 March 2024 00:00
Orbit: 573 x 868 km, 66.7° (Epoch: 24 February)

Date Brightness Start Highest point End Pass type
(mag) Time Alt. Az. Time Alt. Az. Time Alt. Az.
25 Feb - 01:37:49 10° NW 01:42:30 39° WSW 01:46:48 10° S night (unlit)
25 Feb - 14:28:38 10° SE 14:31:29 14° ESE 14:34:19 10° ENE daylight
25 Feb - 16:06:46 10° SSW 16:12:38 80° ESE 16:18:20 10° NE daylight
25 Feb - 17:50:31 10° W 17:55:11 25° NW 17:59:44 10° NNE daylight
25 Feb - 23:04:19 10° NNW 23:08:10 20° NE 23:11:47 10° E visible
26 Feb - 00:45:43 10° NW 00:50:49 83° WSW 00:55:27 10° SSE night (unlit)
26 Feb - 02:30:54 10° W 02:31:41 10° W 02:32:28 10° WSW night (unlit)
26 Feb - 15:15:24 10° S 15:20:54 43° ESE 15:26:15 10° NE daylight
26 Feb - 16:57:29 10° WSW 17:02:56 39° NW 17:08:11 10° NNE daylight
26 Feb - 18:44:06 10° NW 18:46:25 12° NNW 18:48:42 10° N daylight
26 Feb - 22:13:05 10° N 22:15:37 13° NNE 22:18:05 10° ENE visible
26 Feb - 23:53:53 10° NNW 23:58:53 51° NE 00:03:27 10° SE visible
27 Feb - 01:36:33 10° WNW 01:40:23 23° WSW 01:43:59 10° SSW night (unlit)
27 Feb - 14:24:52 10° SSE 14:29:20 23° ESE 14:33:43 10° ENE daylight
27 Feb - 16:05:02 10° SW 16:10:52 68° NW 16:16:30 10° NNE daylight
27 Feb - 17:49:57 10° WNW 17:53:48 18° NW 17:57:34 10° N daylight
27 Feb - 23:02:15 10° NNW 23:06:43 28° NE 23:10:50 10° ESE visible
28 Feb - 00:44:04 10° NW 00:48:52 48° WSW 00:53:17 10° S night (unlit)
28 Feb - 13:36:15 10° ESE 13:37:58 11° ESE 13:39:40 10° E daylight
28 Feb - 15:13:11 10° SSW 15:18:59 69° ESE 15:24:37 10° NE daylight
28 Feb - 16:56:30 10° W 17:01:23 27° NW 17:06:08 10° NNE daylight
28 Feb - 22:10:48 10° N 22:14:19 18° NNE 22:17:38 10° ENE visible
28 Feb - 23:52:02 10° NNW 23:57:08 83° ENE 00:01:45 10° SE visible
29 Feb - 01:36:00 10° WNW 01:38:09 13° WSW 01:40:15 10° SW night (unlit)
29 Feb - 14:21:59 10° S 14:27:17 37° ESE 14:32:27 10° NE daylight
29 Feb - 16:03:37 10° WSW 16:09:11 45° NW 16:14:33 10° NNE daylight
29 Feb - 17:49:46 10° WNW 17:52:31 14° NNW 17:55:13 10° N daylight
29 Feb - 21:19:42 10° N 21:21:43 12° NNE 21:23:41 10° NE visible
29 Feb - 23:00:15 10° NNW 23:05:08 43° NE 23:09:35 10° ESE visible
01 Mar - 00:42:38 10° NW 00:46:47 28° WSW 00:50:40 10° SSW night (unlit)
01 Mar - 13:31:45 10° SSE 13:35:46 19° ESE 13:39:43 10° ENE daylight
01 Mar - 15:11:18 10° SW 15:17:09 78° NW 15:22:49 10° NNE daylight
01 Mar - 16:55:49 10° W 16:59:58 20° NW 17:03:59 10° N daylight
01 Mar - 22:08:40 10° NNW 22:12:53 25° NE 22:16:49 10° E visible
01 Mar - 23:50:18 10° NW 23:55:14 58° WSW 23:59:42 10° SSE visible
02 Mar - 14:19:36 10° SSW 14:25:19 58° ESE 14:30:52 10° NE daylight
02 Mar - 16:02:30 10° WSW 16:07:35 31° NW 16:12:31 10° NNE daylight
02 Mar - 17:50:20 10° NNW 17:51:19 10° NNW 17:52:17 10° N daylight
02 Mar - 21:17:17 10° N 21:20:25 16° NNE 21:23:25 10° ENE visible
02 Mar - 22:58:21 10° NNW 23:03:24 69° NE 23:07:59 10° SE visible
03 Mar - 00:41:42 10° WNW 00:44:35 16° WSW 00:47:21 10° SW night (unlit)
03 Mar - 13:28:37 10° S 13:33:39 31° ESE 13:38:35 10° NE daylight
03 Mar - 15:09:45 10° SW 15:15:26 51° NW 15:20:53 10° NNE daylight
03 Mar - 16:55:29 10° WNW 16:58:37 15° NNW 17:01:41 10° N daylight
03 Mar - 20:26:27 10° N 20:27:47 11° NNE 20:29:05 10° NE visible
03 Mar - 22:06:37 10° NNW 22:11:20 36° NE 22:15:39 10° ESE visible
03 Mar - 23:48:46 10° NW 23:53:11 33° WSW 23:57:15 10° S visible
04 Mar - 12:38:45 10° SE 12:42:11 16° ESE 12:45:33 10° ENE daylight
04 Mar - 14:17:35 10° SSW 14:23:26 90° SSW 14:29:05 10° NNE daylight
04 Mar - 16:01:41 10° W 16:06:06 22° NW 16:10:22 10° NNE daylight
04 Mar - 21:15:06 10° NNW 21:19:02 22° NE 21:22:43 10° E visible
04 Mar - 22:56:33 10° NW 23:01:32 71° WSW 23:06:03 10° SSE visible
05 Mar - 13:26:03 10° S 13:31:39 49° ESE 13:37:04 10° NE daylight
05 Mar - 15:08:31 10° WSW 15:13:47 35° NW 15:18:51 10° NNE daylight
05 Mar - 16:55:39 10° NW 16:57:21 11° NNW 16:59:03 10° N daylight
05 Mar - 20:23:47 10° N 20:26:31 14° NNE 20:29:07 10° ENE visible
05 Mar - 22:04:40 10° NNW 22:09:38 57° NE 22:14:09 10° SE visible
05 Mar - 23:47:36 10° WNW 23:50:59 19° WSW 23:54:13 10° SSW visible
